User: anonymous
Location: Observatorio Las Palmas
(29.0667°N, 110.9333°W)
Time: 21:00:50
(UTC-07:00)
Language:

Skynet4D Del rocket - Orbit

View from above orbital plane
View from above orbital plane
View from above satellite
View from above satellite

Ground track
Ground track

The orbit data is extracted from the following two-line orbital elements,

1 25135U 98002B   14272.50008589  .00000261  00000-0  11740-3 0  2297
2 25135 026.8879 008.2769 0356462 202.0586 256.0358 13.62261062833180
Epoch (UTC): 29 September 2014 12:00:07
Eccentricity: 0.0356462
inclination: 26.8879°
perigee height: 763 km
apogee height: 1291 km
right ascension of ascending node: 8.2769°
argument of perigee: 202.0586°
revolutions per day: 13.62261062
mean anomaly at epoch: 256.0358°
orbit number at epoch: 83318

The dashed part of the orbit path shows where the satellite is in the earth's shadow,  

DLR